JST406 YSSY-YBCG

Flight info

Callsign JST406
Flight time 1h 18m
Altitude 35000
Route OLSEM Y193 BANDA Y43 GOMOL
Aircraft A21N/M-SDE2E3FGHIJ1RWXY/LB1

Departure

Time 2026-05-06 00:58
Airport Sydney Kingsford Smith International Airport (YSSY)

Arrival

Time 2026-05-06 02:16
Airport Gold Coast Airport (YBCG)
Time Latitude Longitude Altitude Speed Heading
2026-05-06 00:12 -33.93559 151.17682 35 ft 0 kts 100°
2026-05-06 00:41 -33.93556 151.17667 35 ft 4 kts 99°
2026-05-06 00:41 -33.93552 151.17636 35 ft 4 kts 102°
2026-05-06 00:42 -33.93544 151.17607 35 ft 4 kts 132°
2026-05-06 00:42 -33.93534 151.17598 35 ft 2 kts 168°
2026-05-06 00:42 -33.93557 151.17604 35 ft 4 kts 168°
2026-05-06 00:42 -33.93576 151.17609 35 ft 0 kts 168°
2026-05-06 00:47 -33.93584 151.17611 35 ft 3 kts 168°
2026-05-06 00:47 -33.93620 151.17621 35 ft 8 kts 160°
2026-05-06 00:47 -33.93679 151.17657 35 ft 11 kts 149°
2026-05-06 00:48 -33.93757 151.17690 35 ft 13 kts 170°
2026-05-06 00:48 -33.93836 151.17719 35 ft 11 kts 138°
2026-05-06 00:48 -33.93895 151.17778 35 ft 12 kts 163°
2026-05-06 00:48 -33.93982 151.17799 34 ft 13 kts 168°
2026-05-06 00:49 -33.94078 151.17824 34 ft 15 kts 167°
2026-05-06 00:49 -33.94186 151.17853 35 ft 17 kts 168°
2026-05-06 00:49 -33.94304 151.17884 35 ft 18 kts 168°
2026-05-06 00:49 -33.94411 151.17911 35 ft 10 kts 169°
2026-05-06 00:50 -33.94482 151.17891 35 ft 12 kts 204°
2026-05-06 00:50 -33.94567 151.17892 35 ft 13 kts 168°
2026-05-06 00:50 -33.94661 151.17918 35 ft 15 kts 167°
2026-05-06 00:50 -33.94766 151.17945 35 ft 16 kts 168°
2026-05-06 00:51 -33.94881 151.17974 35 ft 18 kts 168°
2026-05-06 00:51 -33.95006 151.18006 36 ft 19 kts 168°
2026-05-06 00:51 -33.95095 151.18051 36 ft 14 kts 122°
2026-05-06 00:51 -33.95089 151.18169 36 ft 15 kts 77°
2026-05-06 00:52 -33.95065 151.18300 36 ft 17 kts 78°
2026-05-06 00:52 -33.95043 151.18422 36 ft 12 kts 77°
2026-05-06 00:52 -33.95076 151.18511 36 ft 14 kts 149°
2026-05-06 00:52 -33.95154 151.18586 36 ft 15 kts 137°
2026-05-06 00:53 -33.95236 151.18673 35 ft 17 kts 146°
2026-05-06 00:53 -33.95347 151.18727 35 ft 18 kts 168°
2026-05-06 00:53 -33.95473 151.18759 35 ft 19 kts 168°
2026-05-06 00:53 -33.95608 151.18795 35 ft 20 kts 168°
2026-05-06 00:54 -33.95751 151.18832 35 ft 22 kts 168°
2026-05-06 00:54 -33.95903 151.18871 35 ft 23 kts 168°
2026-05-06 00:54 -33.96064 151.18913 35 ft 24 kts 168°
2026-05-06 00:54 -33.96233 151.18957 35 ft 25 kts 167°
2026-05-06 00:55 -33.96410 151.19003 35 ft 27 kts 168°
2026-05-06 00:55 -33.96576 151.19046 35 ft 21 kts 167°
2026-05-06 00:55 -33.96697 151.19076 35 ft 17 kts 178°
2026-05-06 00:55 -33.96807 151.19063 35 ft 17 kts 174°
2026-05-06 00:56 -33.96926 151.19092 35 ft 18 kts 168°
2026-05-06 00:56 -33.97052 151.19124 36 ft 15 kts 168°
2026-05-06 00:56 -33.97124 151.19182 35 ft 14 kts 102°
2026-05-06 00:56 -33.97108 151.19300 32 ft 15 kts 76°
2026-05-06 00:57 -33.97031 151.19366 30 ft 16 kts 351°
2026-05-06 00:57 -33.96851 151.19317 29 ft 56 kts 347°
2026-05-06 00:57 -33.96220 151.19155 32 ft 126 kts 347°
2026-05-06 00:57 -33.95210 151.18901 236 ft 157 kts 347°
2026-05-06 00:58 -33.94151 151.18645 925 ft 155 kts 351°
2026-05-06 00:58 -33.93065 151.18885 1385 ft 174 kts 32°
2026-05-06 00:58 -33.92048 151.19884 1815 ft 202 kts 37°
2026-05-06 00:58 -33.90859 151.20973 2293 ft 230 kts 36°
2026-05-06 00:59 -33.89491 151.22176 2845 ft 254 kts 36°
2026-05-06 00:59 -33.88030 151.23448 3675 ft 263 kts 36°
2026-05-06 00:59 -33.86538 151.24750 4622 ft 266 kts 36°
2026-05-06 00:59 -33.85118 151.26199 5563 ft 269 kts 50°
2026-05-06 01:00 -33.84225 151.28173 6445 ft 272 kts 71°
2026-05-06 01:00 -33.83657 151.30360 7353 ft 275 kts 73°
2026-05-06 01:00 -33.83101 151.32580 8250 ft 279 kts 71°
2026-05-06 01:00 -33.82188 151.34645 9143 ft 282 kts 54°
2026-05-06 01:01 -33.80965 151.36508 10020 ft 286 kts 51°
2026-05-06 01:01 -33.79697 151.38374 10893 ft 290 kts 50°
2026-05-06 01:01 -33.78417 151.40263 11757 ft 293 kts 50°
2026-05-06 01:01 -33.77101 151.42200 12356 ft 308 kts 50°
2026-05-06 01:02 -33.75702 151.44265 12719 ft 329 kts 50°
2026-05-06 01:02 -33.74238 151.46447 13272 ft 341 kts 50°
2026-05-06 01:02 -33.72757 151.48655 14004 ft 346 kts 50°
2026-05-06 01:02 -33.71221 151.50953 14789 ft 350 kts 50°
2026-05-06 01:03 -33.69693 151.53256 15568 ft 354 kts 50°
2026-05-06 01:03 -33.68169 151.55548 16306 ft 358 kts 50°
2026-05-06 01:03 -33.66577 151.57915 17048 ft 361 kts 50°
2026-05-06 01:03 -33.64959 151.60181 17739 ft 364 kts 43°
2026-05-06 01:04 -33.62952 151.62046 18410 ft 366 kts 32°
2026-05-06 01:04 -33.60805 151.63717 19062 ft 370 kts 31°
2026-05-06 01:04 -33.58605 151.65428 19716 ft 374 kts 32°
2026-05-06 01:04 -33.56449 151.67123 20326 ft 377 kts 32°
2026-05-06 01:05 -33.54241 151.68853 20933 ft 381 kts 31°
2026-05-06 01:05 -33.52008 151.70599 21521 ft 385 kts 31°
2026-05-06 01:05 -33.49726 151.72280 22099 ft 387 kts 25°
2026-05-06 01:05 -33.47199 151.73381 22666 ft 388 kts 14°
2026-05-06 01:06 -33.44580 151.74215 23195 ft 391 kts 12°
2026-05-06 01:06 -33.41934 151.75031 23738 ft 394 kts 13°
2026-05-06 01:06 -33.39270 151.75870 24250 ft 398 kts 13°
2026-05-06 01:06 -33.36594 151.76727 24764 ft 401 kts 13°
2026-05-06 01:07 -33.33886 151.77602 25256 ft 403 kts 13°
2026-05-06 01:07 -33.31166 151.78490 25737 ft 406 kts 13°
2026-05-06 01:07 -33.28429 151.79373 26205 ft 409 kts 13°
2026-05-06 01:07 -33.25672 151.80256 26647 ft 412 kts 13°
2026-05-06 01:08 -33.22896 151.81168 27083 ft 415 kts 13°
2026-05-06 01:08 -33.20105 151.82079 27512 ft 417 kts 12°
2026-05-06 01:08 -33.17295 151.82971 27921 ft 419 kts 12°
2026-05-06 01:08 -33.14467 151.83867 28303 ft 422 kts 12°
2026-05-06 01:09 -33.11625 151.84774 28674 ft 424 kts 12°
2026-05-06 01:09 -33.08767 151.85689 29034 ft 427 kts 12°
2026-05-06 01:09 -33.05929 151.86602 29389 ft 429 kts 12°
2026-05-06 01:09 -33.03047 151.87528 29738 ft 431 kts 12°
2026-05-06 01:10 -33.00140 151.88460 30081 ft 433 kts 12°
2026-05-06 01:10 -32.97222 151.89396 30402 ft 435 kts 12°
2026-05-06 01:10 -32.94293 151.90335 30720 ft 438 kts 12°
2026-05-06 01:10 -32.91340 151.91279 31030 ft 440 kts 12°
2026-05-06 01:11 -32.88382 151.92232 31340 ft 442 kts 12°
2026-05-06 01:11 -32.85408 151.93201 31641 ft 444 kts 12°
2026-05-06 01:11 -32.82427 151.94148 32019 ft 443 kts 11°
2026-05-06 01:11 -32.79449 151.95090 32426 ft 442 kts 11°
2026-05-06 01:12 -32.76484 151.96034 32821 ft 441 kts 11°
2026-05-06 01:12 -32.73524 151.96978 33182 ft 440 kts 11°
2026-05-06 01:12 -32.70575 151.97913 33516 ft 439 kts 11°
2026-05-06 01:12 -32.67628 151.98849 33839 ft 438 kts 11°
2026-05-06 01:13 -32.64686 151.99785 34161 ft 437 kts 11°
2026-05-06 01:13 -32.61743 152.00719 34470 ft 437 kts 11°
2026-05-06 01:13 -32.58808 152.01649 34753 ft 437 kts 11°
2026-05-06 01:13 -32.55875 152.02581 35021 ft 437 kts 11°
2026-05-06 01:14 -32.49997 152.04448 35196 ft 437 kts 11°
2026-05-06 01:14 -32.44162 152.06297 35176 ft 437 kts 11°
2026-05-06 01:15 -32.38293 152.08152 35172 ft 437 kts 11°
2026-05-06 01:15 -32.32424 152.10007 35171 ft 437 kts 11°
2026-05-06 01:16 -32.26550 152.11861 35168 ft 437 kts 11°
2026-05-06 01:16 -32.21898 152.13323 35172 ft 436 kts 10°
2026-05-06 01:17 -32.16035 152.15166 35171 ft 436 kts 11°
2026-05-06 01:17 -32.10175 152.17013 35170 ft 436 kts 11°
2026-05-06 01:18 -32.04315 152.18853 35169 ft 436 kts 11°
2026-05-06 01:18 -31.98456 152.20690 35172 ft 436 kts 10°
2026-05-06 01:19 -31.92591 152.22524 35166 ft 436 kts 10°
2026-05-06 01:19 -31.86734 152.24355 35170 ft 436 kts 10°
2026-05-06 01:20 -31.80869 152.26189 35169 ft 436 kts 10°
2026-05-06 01:20 -31.75004 152.28017 35170 ft 436 kts 10°
2026-05-06 01:21 -31.69131 152.29843 35169 ft 436 kts 10°
2026-05-06 01:21 -31.63258 152.31671 35169 ft 437 kts 10°
2026-05-06 01:22 -31.57389 152.33495 35173 ft 437 kts 10°
2026-05-06 01:22 -31.51554 152.35313 35171 ft 437 kts 10°
2026-05-06 01:23 -31.45671 152.37129 35170 ft 437 kts 10°
2026-05-06 01:23 -31.39784 152.38951 35169 ft 437 kts 10°
2026-05-06 01:24 -31.33900 152.40768 35171 ft 437 kts 10°
2026-05-06 01:24 -31.28016 152.42584 35172 ft 438 kts 10°
2026-05-06 01:25 -31.22121 152.44401 35170 ft 438 kts 10°
2026-05-06 01:25 -31.16226 152.46215 35170 ft 438 kts 10°
2026-05-06 01:26 -31.10325 152.48028 35172 ft 439 kts 10°
2026-05-06 01:26 -31.04412 152.49843 35169 ft 439 kts 10°
2026-05-06 01:27 -30.98503 152.51655 35171 ft 439 kts 10°
2026-05-06 01:27 -30.92591 152.53465 35171 ft 440 kts 10°
2026-05-06 01:28 -30.86678 152.55276 35170 ft 439 kts 10°
2026-05-06 01:28 -30.80764 152.57092 35164 ft 440 kts 11°
2026-05-06 01:29 -30.74996 152.59622 35170 ft 444 kts 17°
2026-05-06 01:29 -30.69298 152.62283 35172 ft 444 kts 17°
2026-05-06 01:30 -30.63552 152.64943 35171 ft 445 kts 17°
2026-05-06 01:30 -30.57802 152.67600 35172 ft 445 kts 17°
2026-05-06 01:31 -30.52052 152.70259 35168 ft 444 kts 17°
2026-05-06 01:31 -30.46308 152.72914 35170 ft 445 kts 17°
2026-05-06 01:32 -30.40565 152.75558 35167 ft 442 kts 17°
2026-05-06 01:32 -30.34896 152.78165 35164 ft 437 kts 17°
2026-05-06 01:33 -30.29178 152.80799 35177 ft 445 kts 17°
2026-05-06 01:33 -30.23424 152.83455 35172 ft 445 kts 17°
2026-05-06 01:34 -30.17667 152.86097 35171 ft 445 kts 17°
2026-05-06 01:34 -30.11904 152.88728 35171 ft 445 kts 17°
2026-05-06 01:35 -30.06166 152.91338 35166 ft 440 kts 17°
2026-05-06 01:35 -30.00491 152.93929 35170 ft 443 kts 17°
2026-05-06 01:36 -29.94732 152.96562 35174 ft 447 kts 17°
2026-05-06 01:36 -29.91880 152.97895 34933 ft 438 kts 17°
2026-05-06 01:36 -29.89075 152.99196 34661 ft 433 kts 17°
2026-05-06 01:37 -29.86285 153.00472 34403 ft 429 kts 16°
2026-05-06 01:37 -29.83518 153.01737 34150 ft 427 kts 16°
2026-05-06 01:37 -29.80762 153.02992 33903 ft 425 kts 17°
2026-05-06 01:37 -29.78060 153.04222 33596 ft 422 kts 16°
2026-05-06 01:38 -29.75306 153.05471 33172 ft 418 kts 17°
2026-05-06 01:38 -29.72650 153.06680 32692 ft 415 kts 17°
2026-05-06 01:38 -29.69969 153.07892 32199 ft 413 kts 16°
2026-05-06 01:38 -29.67300 153.09095 31692 ft 411 kts 16°
2026-05-06 01:39 -29.64640 153.10290 31186 ft 410 kts 17°
2026-05-06 01:39 -29.61993 153.11493 30706 ft 408 kts 17°
2026-05-06 01:39 -29.59360 153.12674 30236 ft 405 kts 17°
2026-05-06 01:39 -29.56740 153.13846 29752 ft 403 kts 17°
2026-05-06 01:40 -29.54131 153.15021 29261 ft 402 kts 17°
2026-05-06 01:40 -29.51532 153.16187 28773 ft 400 kts 17°
2026-05-06 01:40 -29.48948 153.17364 28297 ft 399 kts 17°
2026-05-06 01:40 -29.46380 153.18525 27817 ft 395 kts 17°
2026-05-06 01:41 -29.43826 153.19671 27345 ft 393 kts 17°
2026-05-06 01:41 -29.41285 153.20809 26866 ft 391 kts 17°
2026-05-06 01:41 -29.38754 153.21955 26366 ft 390 kts 17°
2026-05-06 01:41 -29.36236 153.23087 25902 ft 388 kts 17°
2026-05-06 01:42 -29.33734 153.24208 25456 ft 385 kts 18°
2026-05-06 01:42 -29.31315 153.25297 25003 ft 383 kts 18°
2026-05-06 01:42 -29.28836 153.26404 24522 ft 381 kts 18°
2026-05-06 01:42 -29.26372 153.27505 24051 ft 380 kts 18°
2026-05-06 01:43 -29.23919 153.28604 23593 ft 378 kts 18°
2026-05-06 01:43 -29.21476 153.29698 23139 ft 375 kts 18°
2026-05-06 01:43 -29.19055 153.30784 22696 ft 373 kts 18°
2026-05-06 01:43 -29.16643 153.31865 22243 ft 371 kts 18°
2026-05-06 01:44 -29.14248 153.32938 21781 ft 368 kts 18°
2026-05-06 01:44 -29.11909 153.33987 21321 ft 364 kts 18°
2026-05-06 01:44 -29.09565 153.35037 20868 ft 360 kts 18°
2026-05-06 01:44 -29.07247 153.36075 20443 ft 355 kts 18°
2026-05-06 01:45 -29.04960 153.37098 20034 ft 351 kts 18°
2026-05-06 01:45 -29.02705 153.38107 19621 ft 346 kts 18°
2026-05-06 01:45 -29.00475 153.39104 19210 ft 342 kts 18°
2026-05-06 01:45 -28.98276 153.40086 18812 ft 337 kts 18°
2026-05-06 01:46 -28.96104 153.41056 18439 ft 333 kts 18°
2026-05-06 01:46 -28.93961 153.42013 18077 ft 328 kts 18°
2026-05-06 01:46 -28.91847 153.42958 17718 ft 326 kts 18°
2026-05-06 01:46 -28.89734 153.43899 17345 ft 326 kts 18°
2026-05-06 01:47 -28.87617 153.44843 16963 ft 326 kts 18°
2026-05-06 01:47 -28.85508 153.45784 16628 ft 325 kts 18°
2026-05-06 01:47 -28.83401 153.46723 16283 ft 325 kts 18°
2026-05-06 01:47 -28.81299 153.47657 15937 ft 324 kts 19°
2026-05-06 01:48 -28.79201 153.48590 15596 ft 323 kts 19°
2026-05-06 01:48 -28.77107 153.49521 15254 ft 323 kts 19°
2026-05-06 01:48 -28.75016 153.50451 14899 ft 323 kts 19°
2026-05-06 01:48 -28.72925 153.51380 14551 ft 322 kts 19°
2026-05-06 01:49 -28.70841 153.52305 14210 ft 321 kts 19°
2026-05-06 01:49 -28.68763 153.53230 13870 ft 321 kts 19°
2026-05-06 01:49 -28.66688 153.54152 13535 ft 320 kts 19°
2026-05-06 01:49 -28.64614 153.55072 13194 ft 319 kts 19°
2026-05-06 01:50 -28.62544 153.55988 12858 ft 319 kts 20°
2026-05-06 01:50 -28.60481 153.56902 12517 ft 318 kts 20°
2026-05-06 01:50 -28.58421 153.57813 12190 ft 318 kts 20°
2026-05-06 01:50 -28.56366 153.58722 11844 ft 317 kts 20°
2026-05-06 01:51 -28.54315 153.59629 11504 ft 316 kts 20°
2026-05-06 01:51 -28.52263 153.60514 11137 ft 313 kts 18°
2026-05-06 01:51 -28.50211 153.61305 10758 ft 310 kts 18°
2026-05-06 01:51 -28.48176 153.62071 10398 ft 306 kts 18°
2026-05-06 01:52 -28.46171 153.62826 10068 ft 301 kts 18°
2026-05-06 01:52 -28.44199 153.63568 9776 ft 295 kts 18°
2026-05-06 01:52 -28.42264 153.64297 9459 ft 291 kts 18°
2026-05-06 01:52 -28.40366 153.65011 9135 ft 291 kts 18°
2026-05-06 01:53 -28.38443 153.65731 8807 ft 291 kts 18°
2026-05-06 01:53 -28.36514 153.66431 8487 ft 291 kts 17°
2026-05-06 01:53 -28.34587 153.67127 8165 ft 290 kts 18°
2026-05-06 01:53 -28.32684 153.67815 7851 ft 285 kts 18°
2026-05-06 01:54 -28.30805 153.68496 7557 ft 282 kts 18°
2026-05-06 01:54 -28.28915 153.69081 7248 ft 282 kts
2026-05-06 01:54 -28.26977 153.68924 6925 ft 281 kts 345°
2026-05-06 01:54 -28.25124 153.68206 6609 ft 281 kts 339°
2026-05-06 01:55 -28.23296 153.67424 6285 ft 281 kts 339°
2026-05-06 01:55 -28.21466 153.66654 5953 ft 281 kts 340°
2026-05-06 01:55 -28.19641 153.65903 5632 ft 277 kts 340°
2026-05-06 01:55 -28.17834 153.65174 5311 ft 275 kts 341°
2026-05-06 01:56 -28.16035 153.64452 5017 ft 274 kts 341°
2026-05-06 01:56 -28.14237 153.63732 4699 ft 274 kts 341°
2026-05-06 01:56 -28.12439 153.63011 4364 ft 274 kts 341°
2026-05-06 01:56 -28.10642 153.62291 4063 ft 272 kts 341°
2026-05-06 01:57 -28.08893 153.61593 3958 ft 259 kts 341°
2026-05-06 01:57 -28.07243 153.60933 3945 ft 243 kts 341°
2026-05-06 01:57 -28.05708 153.60316 3946 ft 224 kts 341°
2026-05-06 01:57 -28.04281 153.59743 3956 ft 215 kts 341°
2026-05-06 01:58 -28.02934 153.59014 3968 ft 216 kts 321°
2026-05-06 01:58 -28.02042 153.57680 3910 ft 215 kts 288°
2026-05-06 01:58 -28.01861 153.56030 3659 ft 209 kts 266°
2026-05-06 01:58 -28.01961 153.54423 3395 ft 202 kts 265°
2026-05-06 01:59 -28.02043 153.52847 3101 ft 198 kts 266°
2026-05-06 01:59 -28.02099 153.51336 2849 ft 185 kts 266°
2026-05-06 01:59 -28.02141 153.49926 2800 ft 177 kts 266°
2026-05-06 01:59 -28.02196 153.48538 2832 ft 176 kts 261°
2026-05-06 02:00 -28.02698 153.47316 2835 ft 173 kts 221°
2026-05-06 02:00 -28.03773 153.46803 2639 ft 169 kts 183°
2026-05-06 02:00 -28.04934 153.46847 2399 ft 164 kts 176°
2026-05-06 02:00 -28.06063 153.46875 2159 ft 161 kts 179°
2026-05-06 02:01 -28.07139 153.46873 1911 ft 154 kts 180°
2026-05-06 02:01 -28.08209 153.46858 1691 ft 154 kts 180°
2026-05-06 02:01 -28.09278 153.46846 1466 ft 153 kts 180°
2026-05-06 02:01 -28.10310 153.46857 1259 ft 138 kts 176°
2026-05-06 02:02 -28.11193 153.47190 1058 ft 135 kts 149°
2026-05-06 02:02 -28.11999 153.47732 875 ft 134 kts 152°
2026-05-06 02:02 -28.12815 153.48245 683 ft 134 kts 152°
2026-05-06 02:02 -28.13629 153.48763 489 ft 134 kts 152°
2026-05-06 02:03 -28.14524 153.49328 890 ft 155 kts 152°
2026-05-06 02:03 -28.15490 153.49942 1535 ft 167 kts 151°
2026-05-06 02:03 -28.16561 153.50641 2106 ft 188 kts 151°
2026-05-06 02:03 -28.17765 153.51410 2679 ft 213 kts 151°
2026-05-06 02:04 -28.19110 153.52262 2910 ft 224 kts 150°
2026-05-06 02:04 -28.20436 153.53190 2953 ft 224 kts 137°
2026-05-06 02:04 -28.21287 153.54648 2967 ft 225 kts 107°
2026-05-06 02:04 -28.21368 153.56406 2968 ft 227 kts 78°
2026-05-06 02:05 -28.20666 153.57998 2967 ft 230 kts 49°
2026-05-06 02:05 -28.19243 153.59085 2988 ft 264 kts 22°
2026-05-06 02:05 -28.17453 153.59623 2995 ft 267 kts 12°
2026-05-06 02:05 -28.15627 153.60024 2986 ft 267 kts 11°
2026-05-06 02:06 -28.13796 153.60409 2988 ft 267 kts 11°
2026-05-06 02:06 -28.11946 153.60392 2982 ft 269 kts 348°
2026-05-06 02:06 -28.10149 153.59800 2992 ft 269 kts 342°
2026-05-06 02:06 -28.08372 153.59120 2993 ft 269 kts 341°
2026-05-06 02:07 -28.06604 153.58433 2991 ft 269 kts 341°
2026-05-06 02:07 -28.04830 153.57741 2991 ft 269 kts 341°
2026-05-06 02:07 -28.03060 153.57050 2992 ft 269 kts 341°
2026-05-06 02:07 -28.01887 153.56592 2990 ft 266 kts 341°
2026-05-06 02:08 -27.99665 153.55724 2977 ft 245 kts 341°
2026-05-06 02:08 -27.98089 153.55106 2974 ft 238 kts 341°
2026-05-06 02:08 -27.96530 153.54493 2979 ft 238 kts 341°
2026-05-06 02:08 -27.95537 153.53923 2971 ft 238 kts 322°
2026-05-06 02:09 -27.94503 153.52491 2978 ft 237 kts 293°
2026-05-06 02:09 -27.93903 153.50121 2994 ft 237 kts 282°
2026-05-06 02:09 -27.93670 153.48919 2988 ft 226 kts 281°
2026-05-06 02:09 -27.93301 153.46707 2916 ft 211 kts 268°
2026-05-06 02:10 -27.93670 153.45166 2793 ft 197 kts 236°
2026-05-06 02:10 -27.94280 153.44447 2755 ft 189 kts 216°
2026-05-06 02:10 -27.95417 153.43745 2634 ft 186 kts 195°
2026-05-06 02:10 -27.96673 153.43407 2505 ft 185 kts 191°
2026-05-06 02:11 -27.97931 153.43097 2466 ft 185 kts 191°
2026-05-06 02:11 -27.99192 153.42788 2472 ft 185 kts 191°
2026-05-06 02:11 -28.00452 153.42478 2481 ft 185 kts 191°
2026-05-06 02:11 -28.01709 153.42170 2488 ft 184 kts 190°
2026-05-06 02:12 -28.02974 153.42239 2484 ft 184 kts 165°
2026-05-06 02:12 -28.04163 153.42773 2486 ft 184 kts 154°
2026-05-06 02:12 -28.05255 153.43450 2344 ft 173 kts 150°
2026-05-06 02:12 -28.06279 153.44100 2136 ft 167 kts 151°
2026-05-06 02:13 -28.07255 153.44722 1942 ft 157 kts 151°
2026-05-06 02:13 -28.08201 153.45325 1724 ft 154 kts 151°
2026-05-06 02:13 -28.09066 153.45876 1521 ft 137 kts 152°
2026-05-06 02:13 -28.09894 153.46403 1334 ft 137 kts 152°
2026-05-06 02:14 -28.10722 153.46931 1154 ft 136 kts 152°
2026-05-06 02:14 -28.11549 153.47458 982 ft 136 kts 152°
2026-05-06 02:14 -28.12373 153.47983 795 ft 136 kts 152°
2026-05-06 02:14 -28.13195 153.48508 615 ft 135 kts 152°
2026-05-06 02:15 -28.14014 153.49029 438 ft 134 kts 152°
2026-05-06 02:15 -28.14827 153.49557 256 ft 134 kts 152°
2026-05-06 02:15 -28.15642 153.50070 71 ft 134 kts 152°
2026-05-06 02:15 -28.16428 153.50567 32 ft 119 kts 151°
2026-05-06 02:16 -28.16918 153.50878 34 ft 52 kts 151°
2026-05-06 02:16 -28.17170 153.51036 32 ft 30 kts 149°
2026-05-06 02:16 -28.17332 153.51141 32 ft 27 kts 151°
2026-05-06 02:16 -28.17445 153.51214 32 ft 15 kts 137°
2026-05-06 02:17 -28.17443 153.51322 32 ft 13 kts 59°
2026-05-06 02:17 -28.17379 153.51382 31 ft 14 kts 348°
2026-05-06 02:17 -28.17289 153.51330 31 ft 15 kts 331°
2026-05-06 02:17 -28.17191 153.51267 31 ft 17 kts 329°
2026-05-06 02:18 -28.17083 153.51197 31 ft 19 kts 331°
2026-05-06 02:18 -28.16967 153.51124 31 ft 17 kts 330°
2026-05-06 02:18 -28.16896 153.51089 31 ft 11 kts
2026-05-06 02:18 -28.16829 153.51135 31 ft 12 kts 360°
2026-05-06 02:19 -28.16766 153.51103 31 ft 8 kts 328°
2026-05-06 02:19 -28.16724 153.51074 31 ft 6 kts 330°
2026-05-06 02:19 -28.16694 153.51073 31 ft 4 kts 57°
2026-05-06 02:19 -28.16677 153.51110 31 ft 6 kts 61°
2026-05-06 02:20 -28.16651 153.51163 31 ft 0 kts 60°